Погода в Солдыбаеве

Россия / Чувашская Республика     55°52′06″N   48°08′06″E
темп.,
°C
ветер,
м/с
пор.,
м/с
влажн.,
%
обл.,
%
осадки,
мм/ч
давл.,
гПа
погр.,
м
23 октября, сб
сб2300:00+9зюз714760 0.0 1002638
03:00+7зюз7148148 0.0 1003636
06:00+6зюз6138425 0.0 1004487
09:00+8юз6126995 0.0 1006875
12:00+10зюз812538 0.0 10071383
15:00+10зюз711565 0.0 10081346
18:00+6юз496718 0.0 1009195
21:00+5ююз387220 0.0 1009155
24 октября, вс
вс2400:00+5ююз3973100 0.0 1008235
03:00+6зюз497347 0.1 1008490
06:00+3зюз411935 0.0 1008321
09:00+4зюз612807 0.0 1009686
12:00+7з7106121 0.0 10101242
15:00+6з686196 0.0 10111431
18:00+4зюз4872100 0.0 1012827
21:00+4юз4775100 0.0 1012413
25 октября, пн
пн2500:00+4зюз4784100 0.2 1012458
03:00+3зюз2396100 0.9 1012673
06:00+3зсз3697100 1.3 1013606
09:00+1с8129096 1.8 1016665
12:00+2с7106584 0.1 10191102
15:00+3ссз610575 0.1 10221048
18:000сз410705 0.0 1025307
21:00−2зсз3680100 0.0 1025129
26 октября, вт
вт2600:00−1зюз3877100 0.0 1025225
03:00−1юз5127197 0.0 1024431
06:000юз61464100 0.0 1022546
09:00+1зюз71464100 0.0 1021646
12:00+3зюз71164100 0.0 1020755
15:00+4зюз61171100 0.0 1019690
18:00+3зюз61271100 0.0 1020503
21:00+2зюз5127692 0.0 1020362
27 октября, ср
ср2700:00+1зюз5118162 0.0 1020307
03:000зюз51184100 0.0 1019272
06:00+1юз51179100 0.0 1019306
09:00+2юз51270100 0.0 1019423
12:00+5зюз61257100 0.0 1017629
15:00+6юз71455100 0.0 1016689
18:00+5юз71554100 0.0 1014607
21:00+5юз81552100 0.0 1013671